FW5486 Weather Reports


time (UTC)temp
C
wind
direction
speed
KPH
gust
KPH
rain 1hr
cm
rain 24hr
cm
rain mn
cm
humidity
%
barometer
mb
20260502204306 21 19 11.3 30.6 0.00 4.39 0.81 42 1018.2
20260502203534 21 11 14.5 30.6 0.00 4.47 0.81 42 1018.3
20260502203027 21 22 11.3 30.6 0.00 4.52 0.81 41 1018.3
20260502202528 21 24 11.3 29.0 0.00 4.57 0.81 44 1018.3
20260502202028 21 355 11.3 29.0 0.00 4.62 0.81 44 1018.3
20260502201528 21 12 11.3 27.4 0.00 4.70 0.81 44 1018.3
20260502201027 21 34 9.7 29.0 0.00 4.75 0.81 44 1018.4
20260502200800 21 54 9.7 29.0 0.00 4.80 0.81 45 1018.5
20260502200024 21 314 11.3 27.4 0.00 4.85 0.81 49 1018.5
20260502195524 21 349 9.7 27.4 0.00 4.90 0.81 45 1018.7
20260502195024 21 47 8.0 25.7 0.00 4.98 0.81 46 1018.8
20260502194524 21 240 11.3 25.7 0.00 5.03 0.81 48 1018.7
20260502194024 21 26 11.3 27.4 0.00 5.08 0.81 46 1018.8
20260502193524 21 65 12.9 29.0 0.00 5.13 0.81 47 1018.8
20260502193029 21 38 12.9 33.8 0.00 5.23 0.81 48 1018.8
20260502193023 21 34 12.9 29.0 0.00 5.18 0.81 47 1018.8
20260502192022 21 34 11.3 33.8 0.00 5.28 0.81 46 1018.8
20260502191520 21 41 9.7 30.6 0.00 5.33 0.81 46 1019.0
20260502191021 21 5 11.3 25.7 0.00 5.36 0.81 51 1018.9
20260502190751 21 23 12.9 25.7 0.00 5.44 0.81 48 1018.9
20260502190020 21 65 11.3 29.0 0.00 5.46 0.81 49 1018.9
20260502185522 21 18 11.3 29.0 0.00 5.51 0.81 52 1018.8
20260502185016 21 31 11.3 27.4 0.00 5.56 0.81 49 1018.9
20260502184519 21 316 11.3 27.4 0.00 5.59 0.81 52 1019.0
20260502184017 20 58 11.3 27.4 0.00 5.64 0.81 51 1018.8
20260502183516 20 40 12.9 29.0 0.00 5.69 0.81 49 1018.9
20260502183016 20 30 12.9 32.2 0.00 5.74 0.81 51 1019.1
20260502182518 20 52 9.7 32.2 0.00 5.77 0.81 55 1019.2
20260502182012 20 143 11.3 27.4 0.00 5.82 0.81 57 1019.2
20260502181512 20 355 11.3 33.8 0.00 5.87 0.81 55 1019.3
20260502181013 20 30 9.7 33.8 0.00 5.92 0.81 54 1019.4
20260502180512 20 355 11.3 33.8 0.00 5.94 0.81 56 1019.4
20260502170512 19 22 9.7 30.6 0.00 6.12 0.81 60 1019.7
20260502163957 19 23 11.3 29.0 0.00 6.12 0.81 66 1019.7
20260502163458 18 23 11.3 29.0 0.00 6.12 0.81 68 1019.6
20260502162952 19 14 8.0 29.0 0.00 6.12 0.81 69 1019.6
20260502162449 19 315 4.8 20.9 0.00 6.12 0.81 74 1019.6
20260502162220 18 319 6.4 19.3 0.00 6.12 0.81 72 1019.5
20260502161448 18 27 4.8 19.3 0.00 6.12 0.81 73 1019.7
20260502160947 18 344 6.4 19.3 0.00 6.12 0.81 74 1019.7
20260502160450 18 15 8.0 19.3 0.00 6.12 0.81 75 1019.7
20260502152210 17 96 8.0 14.5 0.03 6.22 0.81 77 1019.5
20260502151439 17 337 8.0 19.3 0.03 6.22 0.81 77 1019.6
20260502150936 17 22 6.4 19.3 0.03 6.22 0.81 79 1019.6
20260502150436 16 338 6.4 16.1 0.03 6.25 0.81 79 1019.5
20260502130414 13 38 4.8 16.1 0.05 6.17 0.74 92 1018.2
20260502130138 12 13 4.8 16.1 0.05 6.17 0.74 93 1017.9
20260502123357 12 11 4.8 16.1 0.05 6.15 0.71 93 1017.3
20260502122858 12 49 3.2 14.5 0.05 6.15 0.71 93 1017.3
20260502122629 11 23 3.2 11.3 0.05 6.15 0.71 93 1017.3
20260502121858 11 5 3.2 11.3 0.08 6.15 0.71 94 1017.3
20260502121354 11 44 3.2 8.0 0.08 6.15 0.71 94 1017.2
20260502120854 11 347 1.6 9.7 0.05 6.12 0.69 94 1017.2
20260502120349 11 315 1.6 9.7 0.05 6.12 0.69 94 1017.1
20260502115847 11 330 1.6 6.4 0.05 6.12 0.69 94 1017.0
20260502115347 11 307 1.6 6.4 0.08 6.12 0.69 94 1017.0
20260502114848 11 26 0.0 3.2 0.08 6.12 0.69 94 1016.9
20260502114349 11 0 0.0 3.2 0.05 6.10 0.69 93 1016.9
20260502113849 11 0 0.0 3.2 0.05 6.10 0.66 93 1016.9
20260502113347 11 9 0.0 3.2 0.08 6.10 0.66 93 1016.8
20260502112847 11 9 1.6 3.2 0.08 6.10 0.66 93 1016.6
20260502112348 11 9 0.0 4.8 0.08 6.10 0.66 93 1016.6
20260502111843 11 16 0.0 4.8 0.05 6.07 0.66 93 1016.4
20260502111343 11 16 1.6 4.8 0.05 6.07 0.64 93 1016.3
20260502110844 11 42 1.6 4.8 0.08 6.07 0.64 93 1016.3
20260502110356 11 355 1.6 4.8 0.08 6.07 0.64 92 1016.4
20260502110114 11 32 1.6 6.4 0.08 6.07 0.64 92 1016.3
20260502105345 11 19 1.6 6.4 0.08 6.05 0.61 92 1016.3
20260502104839 11 79 3.2 6.4 0.08 6.05 0.61 92 1016.2
20260502104340 11 74 4.8 12.9 0.08 6.05 0.61 92 1016.2
20260502103840 11 51 3.2 12.9 0.08 6.05 0.61 92 1016.1
20260502103339 11 79 4.8 12.9 0.08 6.02 0.58 91 1016.1
20260502102842 11 67 4.8 12.9 0.08 6.02 0.58 91 1016.1
20260502102340 11 58 3.2 11.3 0.08 6.02 0.58 91 1016.2
20260502101833 11 84 3.2 9.7 0.10 6.02 0.58 91 1016.2
20260502101333 11 58 4.8 12.9 0.08 5.99 0.56 91 1016.1
20260502100830 11 12 3.2 12.9 0.08 5.99 0.56 91 1016.1
20260502100331 11 102 3.2 9.7 0.08 5.99 0.56 91 1016.1
20260502100104 11 40 3.2 11.3 0.10 5.99 0.56 91 1016.1
20260502091327 11 36 8.0 25.7 0.10 5.97 0.48 91 1015.4
20260502091057 11 19 6.4 25.7 0.10 5.99 0.48 91 1015.6
20260502090320 11 55 6.4 24.1 0.10 5.99 0.48 91 1015.6
20260502071300 11 26 4.8 12.9 0.13 5.99 0.28 94 1015.3
20260502070759 11 47 4.8 16.1 0.10 5.97 0.28 94 1015.5
20260502070252 11 32 4.8 16.1 0.13 5.97 0.25 94 1015.6
20260502065752 11 28 6.4 16.1 0.13 5.97 0.25 93 1015.8
20260502065524 11 47 8.0 19.3 0.10 5.94 0.23 93 1015.9
20260502064755 11 51 6.4 19.3 0.13 5.94 0.23 93 1015.9
20260502064253 11 346 6.4 14.5 0.13 5.94 0.23 94 1015.9
20260502063753 11 44 6.4 16.1 0.13 5.92 0.20 93 1016.0
20260502063247 11 72 4.8 16.1 0.13 5.92 0.20 93 1015.7
20260502062748 12 58 4.8 14.5 0.13 5.89 0.18 93 1015.9
20260502062247 12 17 3.2 11.3 0.13 5.89 0.18 93 1016.0
20260502062018 12 23 3.2 9.7 0.15 5.89 0.18 93 1016.5
20260502061248 12 51 4.8 19.3 0.13 5.87 0.15 93 1016.4
20260502060749 12 85 6.4 19.3 0.15 5.87 0.15 93 1015.6
20260502060240 12 45 6.4 22.5 0.13 5.84 0.13 93 1015.3
20260502055743 12 0 8.0 22.5 0.15 5.84 0.13 93 1015.1
20260502055242 12 80 6.4 17.7 0.15 5.84 0.13 93 1015.0
20260502054741 12 76 6.4 16.1 0.15 5.82 0.10 93 1014.9
20260502054241 12 53 6.4 22.5 0.15 5.82 0.10 93 1015.3
20260502054012 12 69 6.4 22.5 0.15 5.79 0.08 93 1015.0
20260502053236 12 84 6.4 22.5 0.15 5.79 0.08 93 1014.5
20260502052734 12 83 6.4 22.5 0.15 5.77 0.05 93 1014.5
20260502052237 12 95 6.4 19.3 0.15 5.77 0.05 93 1014.7
20260502051737 12 74 8.0 24.1 0.15 5.74 0.05 93 1015.0
20260502051236 12 28 8.0 24.1 0.18 5.74 0.03 93 1015.1
20260502050747 12 56 6.4 24.1 0.15 5.71 0.03 93 1015.1
20260502050229 12 92 8.0 24.1 0.18 5.71 0.00 92 1014.9
20260502045728 12 63 6.4 19.3 0.18 5.69 5.71 92 1015.2
20260502045227 12 65 6.4 19.3 0.18 5.69 5.69 92 1015.5
20260502044733 12 13 6.4 16.1 0.20 5.66 5.66 92 1015.1
20260502044726 12 40 6.4 17.7 0.18 5.66 5.66 92 1015.3
20260502043721 12 36 6.4 20.9 0.18 5.64 5.64 92 1015.2
20260502043223 12 53 8.0 24.1 0.20 5.64 5.64 92 1015.1
20260502042721 12 57 8.0 24.1 0.20 5.61 5.61 92 1015.5
20260502042222 12 30 8.0 24.1 0.23 5.61 5.61 92 1015.2
20260502041720 12 5 8.0 25.7 0.23 5.59 5.59 92 1015.1
20260502041219 12 333 9.7 25.7 0.23 5.56 5.56 92 1015.0
20260502040721 12 41 9.7 25.7 0.23 5.56 5.56 92 1015.2
20260502040219 12 324 8.0 25.7 0.23 5.54 5.54 92 1015.2
20260502035720 12 355 6.4 19.3 0.23 5.51 5.51 92 1015.4
20260502035220 12 11 6.4 20.9 0.25 5.51 5.51 92 1015.2
20260502034720 13 15 6.4 20.9 0.25 5.49 5.49 92 1015.2
20260502034219 13 0 6.4 19.3 0.25 5.46 5.46 92 1015.1
20260502033721 13 9 6.4 22.5 0.28 5.46 5.46 92 1015.0
20260502033215 13 76 6.4 22.5 0.28 5.44 5.44 91 1015.0
20260502032717 13 69 8.0 22.5 0.28 5.41 5.41 91 1014.7
20260502032217 13 65 8.0 22.5 0.28 5.38 5.38 91 1014.3
20260502031715 13 76 8.0 20.9 0.28 5.36 5.36 91 1014.5
20260502031215 13 47 8.0 22.5 0.28 5.33 5.36 91 1014.8
20260502030947 13 56 6.4 22.5 0.33 5.33 5.33 91 1014.9
20260502030212 13 13 8.0 20.9 0.33 5.31 5.31 92 1014.6
20260502025713 13 86 9.7 20.9 0.33 5.28 5.28 92 1014.5
20260502025443 13 42 8.0 19.3 0.33 5.26 5.26 92 1014.4
20260502024711 13 73 8.0 19.3 0.33 5.23 5.23 92 1014.7
20260502024211 13 60 9.7 25.7 0.33 5.21 5.21 92 1014.5
20260502023712 13 86 9.7 25.7 0.33 5.18 5.18 91 1014.4
20260502023212 13 67 8.0 17.7 0.36 5.13 5.13 92 1014.4
20260502023207 13 66 8.0 22.5 0.36 5.16 5.16 92 1014.5
20260502022202 13 88 8.0 22.5 0.36 5.11 5.11 92 1014.5
20260502021702 13 38 9.7 22.5 0.38 5.08 5.08 93 1014.2
20260502021202 13 18 6.4 24.1 0.38 5.05 5.05 93 1014.2
20260502020700 13 92 6.4 24.1 0.36 5.00 5.03 93 1014.2
20260502020200 13 85 8.0 24.1 0.38 4.98 5.00 92 1014.2
20260502015655 13 83 8.0 24.1 0.38 4.95 4.95 92 1014.2
20260502015157 13 76 9.7 25.7 0.41 4.93 4.93 92 1014.0
20260502014928 13 98 9.7 25.7 0.41 4.90 4.90 92 1013.8
20260502014814 13 32 9.7 25.7 0.41 4.88 4.88 92 1013.9
20260502013655 13 49 9.7 25.7 0.43 4.85 4.85 92 1013.7
20260502013428 13 44 8.0 22.5 0.41 4.80 4.80 92 1013.5
20260502012654 13 43 8.0 25.7 0.43 4.78 4.78 93 1013.4
20260502012148 13 74 8.0 25.7 0.43 4.75 4.75 93 1013.0
20260502011647 13 74 8.0 24.1 0.43 4.70 4.70 93 1012.6
20260502011148 13 27 8.0 24.1 0.46 4.67 4.67 94 1012.3
20260502010649 13 76 8.0 24.1 0.46 4.65 4.65 94 1012.0
20260502010149 13 40 8.0 17.7 0.46 4.60 4.60 94 1011.6
20260502005648 13 17 8.0 17.7 0.48 4.57 4.57 94 1011.4
20260502005145 13 355 6.4 25.7 0.48 4.52 4.55 94 1011.3
20260502004915 13 96 8.0 25.7 0.48 4.50 4.50 94 1011.1
20260502004413 13 59 8.0 25.7 0.51 4.47 4.47 94 1010.9
20260502003643 13 29 9.7 25.7 0.51 4.42 4.42 94 1011.1
20260502003143 13 61 11.3 24.1 0.53 4.39 4.39 94 1010.9
20260502002644 13 76 8.0 20.9 0.51 4.34 4.34 94 1011.0
20260502002637 13 26 8.0 17.7 0.53 4.32 4.32 94 1011.2
20260502001911 13 83 8.0 17.7 0.53 4.27 4.27 94 1011.6
20260502001139 13 107 4.8 16.1 0.53 4.22 4.24 94 1011.9
20260502000637 13 56 4.8 16.1 0.56 4.19 4.19 94 1012.2
20260502000406 13 100 4.8 17.7 0.56 4.14 4.14 94 1012.8
20260501235635 13 27 3.2 17.7 0.56 4.09 4.09 94 1013.0
20260501235130 13 49 3.2 8.0 0.56 4.04 4.06 94 1013.2
20260501234630 13 56 4.8 9.7 0.58 4.01 4.01 94 1013.2
20260501234128 13 86 6.4 17.7 0.58 3.96 3.96 94 1013.3
20260501233630 13 73 8.0 17.7 0.58 3.91 3.91 94 1013.3
20260501233130 13 49 8.0 16.1 0.58 3.86 3.86 94 1013.0
20260501232631 13 76 9.7 19.3 0.61 3.84 3.84 94 1013.1
20260501232123 13 173 9.7 19.3 0.61 3.78 3.78 94 1013.3
20260501231624 13 78 9.7 20.9 0.58 3.71 3.73 94 1013.0
20260501231123 13 92 11.3 24.1 0.58 3.66 3.68 94 1012.7
20260501230623 13 98 12.9 24.1 0.61 3.63 3.63 94 1012.2
20260501230125 13 103 11.3 24.1 0.61 3.58 3.58 94 1012.8
20260501225624 13 90 9.7 24.1 0.61 3.56 3.53 94 1012.3
20260501225118 13 82 8.0 20.9 0.61 3.53 3.48 94 1012.1
20260501224851 13 81 11.3 24.1 0.61 3.51 3.43 94 1012.2
20260501224119 13 70 12.9 25.7 0.61 3.48 3.38 94 1011.9
20260501223618 13 83 11.3 25.7 0.61 3.45 3.33 94 1012.2
20260501223119 13 84 8.0 20.9 0.61 3.43 3.28 94 1012.8
20260501222618 13 76 8.0 20.9 0.61 3.40 3.23 94 1013.2
20260501222110 14 68 8.0 29.0 0.61 3.40 3.17 94 1013.4
20260501221611 14 0 6.4 29.0 0.61 3.38 3.12 93 1013.3
20260501221343 14 70 6.4 17.7 0.61 3.38 3.07 94 1013.2
20260501220612 14 60 9.7 17.7 0.61 3.35 3.02 93 1012.9
20260501220342 14 37 9.7 17.7 0.61 3.35 2.97 93 1012.9
20260501215613 14 69 9.7 17.7 0.64 3.35 2.92 93 1012.9
20260501215110 14 105 9.7 22.5 0.64 3.38 2.82 93 1012.8
20260501215106 14 74 9.7 22.5 0.64 3.35 2.87 94 1012.9
20260501214105 14 80 11.3 24.1 0.64 3.38 2.77 94 1013.1
20260501213606 14 84 12.9 32.2 0.64 3.40 2.72 93 1012.9
20260501213108 14 93 11.3 32.2 0.64 3.40 2.67 94 1012.7
20260501212606 14 78 9.7 17.7 0.66 3.43 2.62 94 1012.6
20260501212328 14 62 9.7 29.0 0.66 3.48 2.57 93 1012.6
20260501211601 14 94 11.3 29.0 0.66 3.51 2.51 94 1012.6
20260501211333 13 129 14.5 32.2 0.69 3.56 2.46 93 1012.1
20260501210601 14 67 17.7 32.2 0.66 3.61 2.41 93 1011.7
20260501210331 14 63 16.1 33.8 0.66 3.61 2.34 93 1011.7
20260501205600 14 76 12.9 33.8 0.66 3.68 2.29 93 1011.7
20260501205054 14 88 9.7 25.7 0.66 3.78 2.24 93 1012.3
20260501204553 14 63 8.0 25.7 0.69 3.89 2.18 93 1012.7